{"data":{"norad_id":56892,"epoch":"2026-05-25T01:09:15.857280Z","epoch_age_seconds":71170,"freshness":"FRESH","line1":"1 56892U 23083S   26145.04810020  .00000659  00000+0  33474-4 0  9993","line2":"2 56892  43.0056  17.7815 0001911 264.1246  95.9388 15.27576217163269","mean_motion":15.27576217,"eccentricity":0.0001911,"inclination_deg":43.0056,"raan_deg":17.7815,"arg_perigee_deg":264.1246,"mean_anomaly_deg":95.9388,"bstar":3.3474e-5,"rev_number":16326,"period_min":94.266982162632,"perigee_km":481.74924889828,"apogee_km":484.37159855363,"semimajor_km":6861.197423726,"source":"CELESTRAK","updated_at":"2026-05-25T13:38:18.170300Z"}}